Time,TemperatureF,DewpointF,PressureIn,WindDirection,WindDirectionDegrees,WindSpeedMPH,WindSpeedGustMPH,Humidity,HourlyPrecipIn,Conditions,Clouds,dailyrainin,SolarRadiationWatts/m^2,SoftwareType,DateUTC
2013-08-27 00:01:00,67.1,65.0,29.87,WSW,256,0.0,1.0,93,0.00,,,0.00,0.0,WUHU216DAVISVP2,2013-08-27 04:01:00,
2013-08-27 00:06:00,67.0,64.9,29.87,WSW,256,0.0,1.0,93,0.00,,,0.00,0.0,WUHU216DAVISVP2,2013-08-27 04:06:00,
2013-08-27 00:11:00,67.0,64.9,29.87,WSW,256,0.0,1.0,93,0.00,,,0.00,0.0,WUHU216DAVISVP2,2013-08-27 04:11:00,
2013-08-27 00:16:00,66.9,64.8,29.87,WSW,256,1.0,2.0,93,0.00,,,0.00,0.0,WUHU216DAVISVP2,2013-08-27 04:16:00,
2013-08-27 00:21:00,66.8,64.7,29.86,WSW,256,0.0,2.0,93,0.00,,,0.00,0.0,WUHU216DAVISVP2,2013-08-27 04:21:00,
2013-08-27 00:26:00,66.8,64.7,29.86,WSW,256,0.0,2.0,93,0.00,,,0.00,0.0,WUHU216DAVISVP2,2013-08-27 04:26:00,
2013-08-27 00:31:00,66.7,64.6,29.86,WSW,256,0.0,2.0,93,0.00,,,0.00,0.0,WUHU216DAVISVP2,2013-08-27 04:31:00,
2013-08-27 00:36:00,66.7,64.6,29.86,WSW,256,0.0,1.0,93,0.00,,,0.00,0.0,WUHU216DAVISVP2,2013-08-27 04:36:00,
2013-08-27 00:41:00,66.7,64.6,29.86,WSW,256,0.0,1.0,93,0.00,,,0.00,0.0,WUHU216DAVISVP2,2013-08-27 04:41:00,
2013-08-27 00:46:00,66.7,64.6,29.86,WSW,256,0.0,1.0,93,0.00,,,0.00,0.0,WUHU216DAVISVP2,2013-08-27 04:46:00,
2013-08-27 00:51:00,66.7,64.6,29.86,WSW,256,0.0,0.0,93,0.00,,,0.00,0.0,WUHU216DAVISVP2,2013-08-27 04:51:00,
2013-08-27 00:56:00,66.9,64.8,29.86,WSW,256,0.0,0.0,93,0.00,,,0.00,0.0,WUHU216DAVISVP2,2013-08-27 04:56:00,
2013-08-27 01:01:00,66.9,64.8,29.86,WSW,256,0.0,1.0,93,0.00,,,0.00,0.0,WUHU216DAVISVP2,2013-08-27 05:01:00,
2013-08-27 01:06:00,66.9,64.8,29.86,WSW,256,0.0,1.0,93,0.00,,,0.00,0.0,WUHU216DAVISVP2,2013-08-27 05:06:00,
2013-08-27 01:11:00,66.9,64.8,29.86,WSW,256,0.0,1.0,93,0.00,,,0.00,0.0,WUHU216DAVISVP2,2013-08-27 05:11:00,
2013-08-27 01:16:00,66.8,64.7,29.86,WSW,256,0.0,1.0,93,0.00,,,0.00,0.0,WUHU216DAVISVP2,2013-08-27 05:16:00,
2013-08-27 01:21:00,66.7,64.6,29.86,WSW,256,0.0,0.0,93,0.00,,,0.00,0.0,WUHU216DAVISVP2,2013-08-27 05:21:00,
2013-08-27 01:26:00,66.6,64.8,29.85,WSW,256,0.0,0.0,94,0.00,,,0.00,0.0,WUHU216DAVISVP2,2013-08-27 05:26:00,
2013-08-27 01:31:00,66.4,64.3,29.85,WSW,256,0.0,0.0,93,0.00,,,0.00,0.0,WUHU216DAVISVP2,2013-08-27 05:31:00,
2013-08-27 01:36:00,66.3,64.5,29.85,WSW,256,0.0,0.0,94,0.00,,,0.00,0.0,WUHU216DAVISVP2,2013-08-27 05:36:00,
2013-08-27 01:41:00,66.1,64.3,29.85,WSW,256,0.0,0.0,94,0.00,,,0.00,0.0,WUHU216DAVISVP2,2013-08-27 05:41:00,
2013-08-27 01:46:00,66.1,64.3,29.85,WSW,256,0.0,0.0,94,0.00,,,0.00,0.0,WUHU216DAVISVP2,2013-08-27 05:46:00,
2013-08-27 01:51:00,66.2,64.4,29.85,WSW,256,0.0,0.0,94,0.00,,,0.00,0.0,WUHU216DAVISVP2,2013-08-27 05:51:00,
2013-08-27 01:56:00,66.0,64.2,29.85,WSW,256,0.0,0.0,94,0.00,,,0.00,0.0,WUHU216DAVISVP2,2013-08-27 05:56:00,
2013-08-27 02:01:00,66.0,64.2,29.85,WSW,256,0.0,1.0,94,0.00,,,0.00,0.0,WUHU216DAVISVP2,2013-08-27 06:01:00,
2013-08-27 02:06:00,65.9,64.1,29.85,WSW,256,0.0,1.0,94,0.00,,,0.00,0.0,WUHU216DAVISVP2,2013-08-27 06:06:00,
2013-08-27 02:11:00,65.9,64.1,29.85,WSW,256,0.0,1.0,94,0.00,,,0.00,0.0,WUHU216DAVISVP2,2013-08-27 06:11:00,
2013-08-27 02:16:00,65.9,64.1,29.84,WSW,256,0.0,1.0,94,0.00,,,0.00,0.0,WUHU216DAVISVP2,2013-08-27 06:16:00,
2013-08-27 02:21:00,65.8,64.0,29.85,WSW,256,0.0,0.0,94,0.00,,,0.00,0.0,WUHU216DAVISVP2,2013-08-27 06:21:00,
2013-08-27 02:26:00,65.8,64.0,29.85,WSW,256,0.0,0.0,94,0.00,,,0.00,0.0,WUHU216DAVISVP2,2013-08-27 06:26:00,
2013-08-27 02:31:00,65.7,63.9,29.85,WSW,256,0.0,0.0,94,0.00,,,0.00,0.0,WUHU216DAVISVP2,2013-08-27 06:31:00,
2013-08-27 02:36:00,65.7,63.9,29.85,WSW,256,0.0,0.0,94,0.00,,,0.00,0.0,WUHU216DAVISVP2,2013-08-27 06:36:00,
2013-08-27 02:41:00,65.8,64.0,29.85,WSW,256,0.0,0.0,94,0.00,,,0.00,0.0,WUHU216DAVISVP2,2013-08-27 06:41:00,
2013-08-27 02:46:00,65.7,63.9,29.86,WSW,256,0.0,0.0,94,0.00,,,0.00,0.0,WUHU216DAVISVP2,2013-08-27 06:46:00,
2013-08-27 02:51:00,65.7,63.9,29.86,WSW,256,0.0,0.0,94,0.00,,,0.00,0.0,WUHU216DAVISVP2,2013-08-27 06:51:00,
2013-08-27 02:56:00,65.6,63.8,29.86,WSW,256,0.0,0.0,94,0.00,,,0.00,0.0,WUHU216DAVISVP2,2013-08-27 06:56:00,
2013-08-27 03:01:00,65.8,64.0,29.86,WSW,256,0.0,0.0,94,0.00,,,0.00,0.0,WUHU216DAVISVP2,2013-08-27 07:01:00,
2013-08-27 03:06:00,66.0,64.2,29.85,WSW,256,0.0,0.0,94,0.00,,,0.00,0.0,WUHU216DAVISVP2,2013-08-27 07:06:00,
2013-08-27 03:11:00,66.0,64.2,29.85,WSW,256,0.0,0.0,94,0.00,,,0.00,0.0,WUHU216DAVISVP2,2013-08-27 07:11:00,
2013-08-27 03:16:00,66.0,64.2,29.85,WSW,256,0.0,0.0,94,0.00,,,0.00,0.0,WUHU216DAVISVP2,2013-08-27 07:16:00,
2013-08-27 03:21:00,66.2,64.4,29.85,WSW,256,0.0,1.0,94,0.00,,,0.00,0.0,WUHU216DAVISVP2,2013-08-27 07:21:00,
2013-08-27 03:26:00,66.2,64.4,29.85,WSW,256,0.0,1.0,94,0.00,,,0.00,0.0,WUHU216DAVISVP2,2013-08-27 07:26:00,
2013-08-27 03:31:00,66.2,64.4,29.85,WSW,256,0.0,1.0,94,0.00,,,0.00,0.0,WUHU216DAVISVP2,2013-08-27 07:31:00,
2013-08-27 03:36:00,66.3,64.5,29.85,WSW,256,0.0,1.0,94,0.00,,,0.00,0.0,WUHU216DAVISVP2,2013-08-27 07:36:00,
2013-08-27 03:41:00,66.3,64.5,29.85,WSW,256,0.0,0.0,94,0.00,,,0.00,0.0,WUHU216DAVISVP2,2013-08-27 07:41:00,
2013-08-27 03:46:00,66.5,64.7,29.85,WSW,256,0.0,0.0,94,0.00,,,0.00,0.0,WUHU216DAVISVP2,2013-08-27 07:46:00,
2013-08-27 03:51:00,66.5,64.4,29.85,WSW,256,0.0,0.0,93,0.00,,,0.00,0.0,WUHU216DAVISVP2,2013-08-27 07:51:00,
2013-08-27 03:56:00,66.5,64.4,29.85,WSW,256,0.0,0.0,93,0.00,,,0.00,0.0,WUHU216DAVISVP2,2013-08-27 07:56:00,
2013-08-27 04:01:00,66.5,64.7,29.85,WSW,256,0.0,0.0,94,0.00,,,0.00,0.0,WUHU216DAVISVP2,2013-08-27 08:01:00,
2013-08-27 04:06:00,66.6,64.8,29.85,WSW,256,0.0,0.0,94,0.00,,,0.00,0.0,WUHU216DAVISVP2,2013-08-27 08:06:00,
2013-08-27 04:11:00,66.5,64.7,29.85,WSW,256,0.0,0.0,94,0.00,,,0.00,0.0,WUHU216DAVISVP2,2013-08-27 08:11:00,
2013-08-27 04:16:00,66.5,64.7,29.85,WSW,256,0.0,0.0,94,0.00,,,0.00,0.0,WUHU216DAVISVP2,2013-08-27 08:16:00,
2013-08-27 04:21:00,66.5,64.7,29.85,WSW,256,0.0,0.0,94,0.00,,,0.00,0.0,WUHU216DAVISVP2,2013-08-27 08:21:00,
2013-08-27 04:26:00,66.6,64.8,29.85,WSW,256,0.0,1.0,94,0.00,,,0.00,0.0,WUHU216DAVISVP2,2013-08-27 08:26:00,
2013-08-27 04:31:00,66.6,64.8,29.86,WSW,256,0.0,1.0,94,0.00,,,0.00,0.0,WUHU216DAVISVP2,2013-08-27 08:31:00,
2013-08-27 04:36:00,66.6,64.8,29.86,WSW,256,0.0,1.0,94,0.00,,,0.00,0.0,WUHU216DAVISVP2,2013-08-27 08:36:00,
2013-08-27 04:41:00,66.6,64.8,29.86,WSW,256,0.0,1.0,94,0.00,,,0.00,0.0,WUHU216DAVISVP2,2013-08-27 08:41:00,
2013-08-27 04:46:00,66.6,64.8,29.86,WSW,256,0.0,0.0,94,0.00,,,0.00,0.0,WUHU216DAVISVP2,2013-08-27 08:46:00,
2013-08-27 04:51:00,66.7,64.9,29.86,WSW,256,0.0,0.0,94,0.00,,,0.00,0.0,WUHU216DAVISVP2,2013-08-27 08:51:00,
2013-08-27 04:56:00,66.6,64.8,29.86,WSW,256,0.0,0.0,94,0.00,,,0.00,0.0,WUHU216DAVISVP2,2013-08-27 08:56:00,
2013-08-27 05:01:00,66.6,64.8,29.86,WSW,256,0.0,1.0,94,0.00,,,0.00,0.0,WUHU216DAVISVP2,2013-08-27 09:01:00,
2013-08-27 05:06:00,66.6,64.8,29.86,WSW,256,0.0,1.0,94,0.00,,,0.00,0.0,WUHU216DAVISVP2,2013-08-27 09:06:00,
2013-08-27 05:11:00,66.6,64.8,29.85,WSW,256,0.0,1.0,94,0.00,,,0.00,0.0,WUHU216DAVISVP2,2013-08-27 09:11:00,
2013-08-27 05:16:00,66.6,64.8,29.85,WSW,256,0.0,1.0,94,0.00,,,0.00,0.0,WUHU216DAVISVP2,2013-08-27 09:16:00,
2013-08-27 05:21:00,66.6,64.8,29.86,WSW,256,0.0,0.0,94,0.00,,,0.00,0.0,WUHU216DAVISVP2,2013-08-27 09:21:00,
2013-08-27 05:26:00,66.6,64.8,29.86,WSW,256,0.0,0.0,94,0.00,,,0.00,0.0,WUHU216DAVISVP2,2013-08-27 09:26:00,
2013-08-27 05:31:00,66.7,64.9,29.86,WSW,256,0.0,0.0,94,0.00,,,0.00,0.0,WUHU216DAVISVP2,2013-08-27 09:31:00,
2013-08-27 05:36:00,66.7,64.9,29.86,WSW,256,0.0,1.0,94,0.00,,,0.00,0.0,WUHU216DAVISVP2,2013-08-27 09:36:00,
2013-08-27 05:41:00,66.6,64.8,29.86,WSW,256,0.0,1.0,94,0.00,,,0.00,0.0,WUHU216DAVISVP2,2013-08-27 09:41:00,
2013-08-27 05:46:00,66.5,64.7,29.86,WSW,256,0.0,1.0,94,0.00,,,0.00,0.0,WUHU216DAVISVP2,2013-08-27 09:46:00,
2013-08-27 05:51:00,66.5,64.7,29.86,WSW,256,0.0,1.0,94,0.00,,,0.00,0.0,WUHU216DAVISVP2,2013-08-27 09:51:00,
2013-08-27 05:56:00,66.3,64.5,29.86,WSW,256,0.0,1.0,94,0.00,,,0.00,0.0,WUHU216DAVISVP2,2013-08-27 09:56:00,
2013-08-27 06:01:00,66.0,64.2,29.87,WSW,256,0.0,0.0,94,0.00,,,0.00,0.0,WUHU216DAVISVP2,2013-08-27 10:01:00,
2013-08-27 06:06:00,65.9,64.1,29.87,WSW,256,0.0,0.0,94,0.00,,,0.00,0.0,WUHU216DAVISVP2,2013-08-27 10:06:00,
2013-08-27 06:11:00,65.9,64.1,29.87,WSW,256,0.0,0.0,94,0.00,,,0.00,0.0,WUHU216DAVISVP2,2013-08-27 10:11:00,
2013-08-27 06:16:00,66.1,64.3,29.87,WSW,256,0.0,0.0,94,0.00,,,0.00,5.0,WUHU216DAVISVP2,2013-08-27 10:16:00,
2013-08-27 06:21:00,65.8,64.0,29.87,WSW,256,0.0,1.0,94,0.00,,,0.00,7.0,WUHU216DAVISVP2,2013-08-27 10:21:00,
2013-08-27 06:26:00,65.6,63.8,29.88,WSW,256,0.0,1.0,94,0.00,,,0.00,9.0,WUHU216DAVISVP2,2013-08-27 10:26:00,
2013-08-27 06:31:00,65.5,63.7,29.88,WSW,256,0.0,1.0,94,0.00,,,0.00,11.0,WUHU216DAVISVP2,2013-08-27 10:31:00,
2013-08-27 06:36:00,65.6,63.8,29.88,WSW,256,0.0,1.0,94,0.00,,,0.00,14.0,WUHU216DAVISVP2,2013-08-27 10:36:00,
2013-08-27 06:41:00,65.5,63.7,29.88,WSW,256,0.0,1.0,94,0.00,,,0.00,19.0,WUHU216DAVISVP2,2013-08-27 10:41:00,
2013-08-27 06:46:00,65.5,63.7,29.88,WSW,256,0.0,1.0,94,0.00,,,0.00,25.0,WUHU216DAVISVP2,2013-08-27 10:46:00,
2013-08-27 06:51:00,65.7,63.9,29.88,WSW,256,0.0,1.0,94,0.00,,,0.00,32.0,WUHU216DAVISVP2,2013-08-27 10:51:00,
2013-08-27 06:56:00,65.9,64.1,29.88,WSW,256,0.0,1.0,94,0.00,,,0.00,44.0,WUHU216DAVISVP2,2013-08-27 10:56:00,
2013-08-27 07:01:00,65.9,64.1,29.88,WSW,256,0.0,1.0,94,0.00,,,0.00,49.0,WUHU216DAVISVP2,2013-08-27 11:01:00,
2013-08-27 07:06:00,66.1,64.3,29.88,WSW,256,0.0,1.0,94,0.00,,,0.00,54.0,WUHU216DAVISVP2,2013-08-27 11:06:00,
2013-08-27 07:11:00,66.3,64.5,29.89,WSW,256,0.0,1.0,94,0.00,,,0.00,62.0,WUHU216DAVISVP2,2013-08-27 11:11:00,
2013-08-27 07:16:00,66.6,64.8,29.88,WSW,256,0.0,1.0,94,0.00,,,0.00,72.0,WUHU216DAVISVP2,2013-08-27 11:16:00,
2013-08-27 07:21:00,67.0,65.2,29.89,WSW,256,0.0,0.0,94,0.00,,,0.00,67.0,WUHU216DAVISVP2,2013-08-27 11:21:00,
2013-08-27 07:26:00,66.9,65.1,29.89,WSW,256,0.0,0.0,94,0.00,,,0.00,69.0,WUHU216DAVISVP2,2013-08-27 11:26:00,
2013-08-27 07:31:00,67.0,64.9,29.89,WSW,256,0.0,0.0,93,0.00,,,0.00,65.0,WUHU216DAVISVP2,2013-08-27 11:31:00,
2013-08-27 07:36:00,67.1,65.0,29.88,WSW,256,0.0,0.0,93,0.00,,,0.00,62.0,WUHU216DAVISVP2,2013-08-27 11:36:00,
2013-08-27 07:41:00,67.3,65.2,29.88,WSW,256,0.0,0.0,93,0.00,,,0.00,60.0,WUHU216DAVISVP2,2013-08-27 11:41:00,
2013-08-27 07:46:00,67.5,65.4,29.88,WSW,256,0.0,0.0,93,0.00,,,0.00,58.0,WUHU216DAVISVP2,2013-08-27 11:46:00,
2013-08-27 07:51:00,67.6,65.5,29.89,WSW,256,0.0,1.0,93,0.00,,,0.00,63.0,WUHU216DAVISVP2,2013-08-27 11:51:00,
2013-08-27 07:56:00,67.7,65.6,29.89,WSW,256,0.0,1.0,93,0.00,,,0.00,65.0,WUHU216DAVISVP2,2013-08-27 11:56:00,
2013-08-27 08:01:00,67.8,65.7,29.89,WSW,256,1.0,2.0,93,0.00,,,0.00,65.0,WUHU216DAVISVP2,2013-08-27 12:01:00,
2013-08-27 08:06:00,68.0,65.9,29.88,WSW,256,0.0,2.0,93,0.00,,,0.00,77.0,WUHU216DAVISVP2,2013-08-27 12:06:00,
2013-08-27 08:11:00,68.3,66.2,29.89,WSW,256,0.0,2.0,93,0.00,,,0.00,91.0,WUHU216DAVISVP2,2013-08-27 12:11:00,
2013-08-27 08:16:00,68.5,66.1,29.89,WSW,256,0.0,2.0,92,0.00,,,0.00,95.0,WUHU216DAVISVP2,2013-08-27 12:16:00,
2013-08-27 08:21:00,68.6,66.2,29.89,WSW,256,0.0,2.0,92,0.00,,,0.00,100.0,WUHU216DAVISVP2,2013-08-27 12:21:00,
2013-08-27 08:26:00,68.5,66.1,29.89,WSW,256,0.0,2.0,92,0.00,,,0.00,162.0,WUHU216DAVISVP2,2013-08-27 12:26:00,
2013-08-27 08:31:00,68.9,66.5,29.89,WSW,256,0.0,2.0,92,0.00,,,0.00,262.0,WUHU216DAVISVP2,2013-08-27 12:31:00,
2013-08-27 08:36:00,69.4,66.9,29.89,WSW,256,1.0,2.0,92,0.00,,,0.00,309.0,WUHU216DAVISVP2,2013-08-27 12:36:00,
2013-08-27 08:41:00,69.8,67.0,29.89,WSW,254,1.0,3.0,91,0.00,,,0.00,322.0,WUHU216DAVISVP2,2013-08-27 12:41:00,
2013-08-27 08:46:00,70.4,67.3,29.89,WSW,252,2.0,3.0,90,0.00,,,0.00,353.0,WUHU216DAVISVP2,2013-08-27 12:46:00,
2013-08-27 08:51:00,70.8,67.4,29.89,WNW,294,0.0,3.0,89,0.00,,,0.00,352.0,WUHU216DAVISVP2,2013-08-27 12:51:00,
2013-08-27 08:56:00,72.3,67.9,29.89,WNW,294,0.0,3.0,86,0.00,,,0.00,359.0,WUHU216DAVISVP2,2013-08-27 12:56:00,
2013-08-27 09:01:00,72.3,67.6,29.89,WSW,257,1.0,3.0,85,0.00,,,0.00,343.0,WUHU216DAVISVP2,2013-08-27 13:01:00,
2013-08-27 09:06:00,73.4,69.6,29.89,WSW,257,1.0,2.0,88,0.00,,,0.00,413.0,WUHU216DAVISVP2,2013-08-27 13:06:00,
2013-08-27 09:11:00,73.7,68.3,29.88,WSW,257,0.0,2.0,83,0.00,,,0.00,431.0,WUHU216DAVISVP2,2013-08-27 13:11:00,
2013-08-27 09:16:00,74.6,69.5,29.89,WSW,257,1.0,2.0,84,0.00,,,0.00,438.0,WUHU216DAVISVP2,2013-08-27 13:16:00,
2013-08-27 09:21:00,74.5,68.7,29.89,WSW,257,0.0,2.0,82,0.00,,,0.00,457.0,WUHU216DAVISVP2,2013-08-27 13:21:00,
2013-08-27 09:26:00,74.6,68.8,29.88,SW,219,0.0,2.0,82,0.00,,,0.00,476.0,WUHU216DAVISVP2,2013-08-27 13:26:00,
2013-08-27 09:31:00,74.3,68.2,29.88,SW,233,0.0,2.0,81,0.00,,,0.00,480.0,WUHU216DAVISVP2,2013-08-27 13:31:00,
2013-08-27 09:36:00,74.7,68.6,29.88,WSW,255,1.0,3.0,81,0.00,,,0.00,506.0,WUHU216DAVISVP2,2013-08-27 13:36:00,
2013-08-27 09:41:00,74.9,69.4,29.88,WNW,283,1.0,3.0,83,0.00,,,0.00,522.0,WUHU216DAVISVP2,2013-08-27 13:41:00,
2013-08-27 09:46:00,76.5,68.9,29.88,WSW,257,2.0,3.0,77,0.00,,,0.00,571.0,WUHU216DAVISVP2,2013-08-27 13:46:00,
2013-08-27 09:51:00,75.9,68.3,29.88,WSW,251,1.0,3.0,77,0.00,,,0.00,334.0,WUHU216DAVISVP2,2013-08-27 13:51:00,
2013-08-27 09:56:00,77.5,69.1,29.89,West,266,1.0,3.0,75,0.00,,,0.00,594.0,WUHU216DAVISVP2,2013-08-27 13:56:00,
2013-08-27 10:01:00,77.1,68.0,29.89,WNW,285,1.0,4.0,73,0.00,,,0.00,580.0,WUHU216DAVISVP2,2013-08-27 14:01:00,
2013-08-27 10:06:00,77.1,67.2,29.88,SW,220,0.0,4.0,71,0.00,,,0.00,585.0,WUHU216DAVISVP2,2013-08-27 14:06:00,
2013-08-27 10:11:00,76.7,68.0,29.89,WSW,243,2.0,4.0,74,0.00,,,0.00,612.0,WUHU216DAVISVP2,2013-08-27 14:11:00,
2013-08-27 10:16:00,77.6,70.6,29.89,SW,229,1.0,4.0,79,0.00,,,0.00,629.0,WUHU216DAVISVP2,2013-08-27 14:16:00,
2013-08-27 10:21:00,79.6,69.0,29.89,SE,140,2.0,4.0,70,0.00,,,0.00,638.0,WUHU216DAVISVP2,2013-08-27 14:21:00,
2013-08-27 10:26:00,79.3,70.3,29.89,ENE,61,1.0,4.0,74,0.00,,,0.00,663.0,WUHU216DAVISVP2,2013-08-27 14:26:00,
2013-08-27 10:31:00,78.3,66.9,29.89,WSW,246,1.0,4.0,68,0.00,,,0.00,673.0,WUHU216DAVISVP2,2013-08-27 14:31:00,
2013-08-27 10:36:00,79.0,68.2,29.89,ENE,57,2.0,5.0,69,0.00,,,0.00,738.0,WUHU216DAVISVP2,2013-08-27 14:36:00,
2013-08-27 10:41:00,80.6,70.1,29.89,NNE,31,1.0,5.0,70,0.00,,,0.00,761.0,WUHU216DAVISVP2,2013-08-27 14:41:00,
2013-08-27 10:46:00,80.1,68.4,29.89,NE,47,0.0,5.0,67,0.00,,,0.00,209.0,WUHU216DAVISVP2,2013-08-27 14:46:00,
2013-08-27 10:51:00,79.8,68.5,29.89,NNE,13,0.0,5.0,68,0.00,,,0.00,715.0,WUHU216DAVISVP2,2013-08-27 14:51:00,
2013-08-27 10:56:00,81.4,70.5,29.89,North,9,1.0,2.0,69,0.00,,,0.00,742.0,WUHU216DAVISVP2,2013-08-27 14:56:00,
2013-08-27 11:01:00,80.3,68.1,29.89,ENE,67,3.0,4.0,66,0.00,,,0.00,772.0,WUHU216DAVISVP2,2013-08-27 15:01:00,
2013-08-27 11:06:00,80.2,67.6,29.89,NW,313,2.0,4.0,65,0.00,,,0.00,763.0,WUHU216DAVISVP2,2013-08-27 15:06:00,
2013-08-27 11:11:00,80.1,68.4,29.89,NE,46,1.0,4.0,67,0.00,,,0.00,165.0,WUHU216DAVISVP2,2013-08-27 15:11:00,
2013-08-27 11:16:00,79.9,69.0,29.89,NNE,32,2.0,4.0,69,0.00,,,0.00,780.0,WUHU216DAVISVP2,2013-08-27 15:16:00,
2013-08-27 11:21:00,79.6,67.0,29.89,ESE,113,0.0,3.0,65,0.00,,,0.00,230.0,WUHU216DAVISVP2,2013-08-27 15:21:00,
2013-08-27 11:26:00,78.4,67.2,29.89,SSW,205,0.0,3.0,68,0.00,,,0.00,246.0,WUHU216DAVISVP2,2013-08-27 15:26:00,
2013-08-27 11:31:00,78.8,69.6,29.89,SSW,205,0.0,3.0,73,0.00,,,0.00,239.0,WUHU216DAVISVP2,2013-08-27 15:31:00,
2013-08-27 11:36:00,78.5,67.3,29.89,SSW,205,0.0,2.0,68,0.00,,,0.00,197.0,WUHU216DAVISVP2,2013-08-27 15:36:00,
2013-08-27 11:41:00,78.5,68.1,29.88,SSW,196,1.0,2.0,70,0.00,,,0.00,220.0,WUHU216DAVISVP2,2013-08-27 15:41:00,
2013-08-27 11:46:00,79.1,69.1,29.88,SSW,196,1.0,2.0,71,0.00,,,0.00,253.0,WUHU216DAVISVP2,2013-08-27 15:46:00,
2013-08-27 11:51:00,79.5,68.4,29.88,SSW,211,1.0,2.0,69,0.00,,,0.00,824.0,WUHU216DAVISVP2,2013-08-27 15:51:00,
2013-08-27 11:56:00,81.3,67.8,29.88,South,179,1.0,2.0,63,0.00,,,0.00,831.0,WUHU216DAVISVP2,2013-08-27 15:56:00,
2013-08-27 12:01:00,79.5,66.9,29.88,SW,229,2.0,3.0,65,0.00,,,0.00,872.0,WUHU216DAVISVP2,2013-08-27 16:01:00,
2013-08-27 12:06:00,80.5,68.3,29.88,WSW,258,1.0,3.0,66,0.00,,,0.00,891.0,WUHU216DAVISVP2,2013-08-27 16:06:00,
2013-08-27 12:11:00,81.1,67.1,29.88,West,277,2.0,6.0,62,0.00,,,0.00,877.0,WUHU216DAVISVP2,2013-08-27 16:11:00,
2013-08-27 12:16:00,81.3,67.8,29.88,WSW,254,1.0,6.0,63,0.00,,,0.00,877.0,WUHU216DAVISVP2,2013-08-27 16:16:00,
2013-08-27 12:21:00,83.3,68.7,29.88,WSW,256,2.0,6.0,61,0.00,,,0.00,954.0,WUHU216DAVISVP2,2013-08-27 16:21:00,
2013-08-27 12:26:00,82.4,68.3,29.88,WNW,288,1.0,6.0,62,0.00,,,0.00,1037.0,WUHU216DAVISVP2,2013-08-27 16:26:00,
2013-08-27 12:31:00,82.8,66.0,29.88,South,177,2.0,6.0,57,0.00,,,0.00,1037.0,WUHU216DAVISVP2,2013-08-27 16:31:00,
2013-08-27 12:36:00,82.9,68.8,29.87,ENE,77,4.0,6.0,62,0.00,,,0.00,991.0,WUHU216DAVISVP2,2013-08-27 16:36:00,
2013-08-27 12:41:00,83.8,66.7,29.87,NE,49,2.0,6.0,56,0.00,,,0.00,884.0,WUHU216DAVISVP2,2013-08-27 16:41:00,
2013-08-27 12:46:00,81.6,65.6,29.87,WSW,253,2.0,6.0,58,0.00,,,0.00,227.0,WUHU216DAVISVP2,2013-08-27 16:46:00,
2013-08-27 12:51:00,80.8,69.5,29.87,SW,227,1.0,4.0,68,0.00,,,0.00,299.0,WUHU216DAVISVP2,2013-08-27 16:51:00,
2013-08-27 12:56:00,81.6,70.7,29.87,WSW,244,2.0,4.0,69,0.00,,,0.00,974.0,WUHU216DAVISVP2,2013-08-27 16:56:00,
2013-08-27 13:01:00,82.2,69.5,29.87,WNW,288,2.0,5.0,65,0.00,,,0.00,563.0,WUHU216DAVISVP2,2013-08-27 17:01:00,
2013-08-27 13:06:00,80.8,67.7,29.87,WSW,250,2.0,5.0,64,0.00,,,0.00,315.0,WUHU216DAVISVP2,2013-08-27 17:06:00,
2013-08-27 13:11:00,81.0,68.4,29.87,SW,218,0.0,5.0,65,0.00,,,0.00,969.0,WUHU216DAVISVP2,2013-08-27 17:11:00,
2013-08-27 13:16:00,82.5,67.5,29.87,WNW,293,1.0,4.0,60,0.00,,,0.00,223.0,WUHU216DAVISVP2,2013-08-27 17:16:00,
2013-08-27 13:21:00,80.3,66.1,29.87,WNW,290,0.0,4.0,62,0.00,,,0.00,265.0,WUHU216DAVISVP2,2013-08-27 17:21:00,
2013-08-27 13:26:00,81.6,69.6,29.87,WNW,290,1.0,4.0,67,0.00,,,0.00,362.0,WUHU216DAVISVP2,2013-08-27 17:26:00,
2013-08-27 13:31:00,82.0,66.0,29.87,SW,225,2.0,4.0,58,0.00,,,0.00,882.0,WUHU216DAVISVP2,2013-08-27 17:31:00,
2013-08-27 13:36:00,82.7,67.2,29.87,SSE,155,2.0,4.0,59,0.00,,,0.00,902.0,WUHU216DAVISVP2,2013-08-27 17:36:00,
2013-08-27 13:41:00,83.3,67.7,29.87,WSW,252,2.0,4.0,59,0.00,,,0.00,626.0,WUHU216DAVISVP2,2013-08-27 17:41:00,
2013-08-27 13:46:00,82.2,65.7,29.87,WNW,282,0.0,4.0,57,0.00,,,0.00,246.0,WUHU216DAVISVP2,2013-08-27 17:46:00,
2013-08-27 13:51:00,82.1,69.0,29.87,NNW,337,1.0,4.0,64,0.00,,,0.00,255.0,WUHU216DAVISVP2,2013-08-27 17:51:00,
2013-08-27 13:56:00,82.3,68.2,29.87,North,5,1.0,4.0,62,0.00,,,0.00,262.0,WUHU216DAVISVP2,2013-08-27 17:56:00,
2013-08-27 14:01:00,82.2,70.8,29.87,NNE,32,1.0,3.0,68,0.00,,,0.00,346.0,WUHU216DAVISVP2,2013-08-27 18:01:00,
2013-08-27 14:06:00,82.0,71.5,29.86,NNE,32,1.0,2.0,70,0.00,,,0.00,276.0,WUHU216DAVISVP2,2013-08-27 18:06:00,
2013-08-27 14:11:00,81.7,71.6,29.86,NNE,32,1.0,2.0,71,0.00,,,0.00,274.0,WUHU216DAVISVP2,2013-08-27 18:11:00,
2013-08-27 14:16:00,82.5,70.3,29.86,NNE,31,1.0,2.0,66,0.00,,,0.00,165.0,WUHU216DAVISVP2,2013-08-27 18:16:00,
2013-08-27 14:21:00,81.6,70.7,29.86,NNE,31,1.0,2.0,69,0.00,,,0.00,104.0,WUHU216DAVISVP2,2013-08-27 18:21:00,
2013-08-27 14:26:00,80.5,69.6,29.86,NNE,31,0.0,2.0,69,0.00,,,0.00,141.0,WUHU216DAVISVP2,2013-08-27 18:26:00,
2013-08-27 14:31:00,81.1,70.0,29.86,NNE,31,0.0,1.0,69,0.00,,,0.00,322.0,WUHU216DAVISVP2,2013-08-27 18:31:00,
2013-08-27 14:36:00,81.8,69.8,29.85,NNE,31,1.0,1.0,67,0.00,,,0.00,244.0,WUHU216DAVISVP2,2013-08-27 18:36:00,
2013-08-27 14:41:00,82.3,70.2,29.85,NNE,31,0.0,1.0,67,0.00,,,0.00,789.0,WUHU216DAVISVP2,2013-08-27 18:41:00,
2013-08-27 14:46:00,82.9,65.8,29.85,WNW,297,2.0,3.0,56,0.00,,,0.00,756.0,WUHU216DAVISVP2,2013-08-27 18:46:00,
2013-08-27 14:51:00,82.6,67.1,29.85,WNW,287,2.0,3.0,59,0.00,,,0.00,759.0,WUHU216DAVISVP2,2013-08-27 18:51:00,
2013-08-27 14:56:00,82.2,68.6,29.85,WNW,288,1.0,3.0,63,0.00,,,0.00,111.0,WUHU216DAVISVP2,2013-08-27 18:56:00,
2013-08-27 15:01:00,81.9,69.2,29.85,WNW,288,1.0,3.0,65,0.00,,,0.00,105.0,WUHU216DAVISVP2,2013-08-27 19:01:00,
2013-08-27 15:06:00,80.9,69.2,29.85,NNW,332,2.0,2.0,67,0.00,,,0.00,127.0,WUHU216DAVISVP2,2013-08-27 19:06:00,
2013-08-27 15:11:00,80.3,71.1,29.84,NNW,332,2.0,2.0,73,0.00,,,0.00,206.0,WUHU216DAVISVP2,2013-08-27 19:11:00,
2013-08-27 15:16:00,83.1,69.9,29.84,NE,51,1.0,3.0,64,0.00,,,0.00,726.0,WUHU216DAVISVP2,2013-08-27 19:16:00,
2013-08-27 15:21:00,83.4,70.2,29.84,ENE,64,2.0,3.0,64,0.00,,,0.00,703.0,WUHU216DAVISVP2,2013-08-27 19:21:00,
2013-08-27 15:26:00,83.1,68.0,29.84,NE,56,1.0,3.0,60,0.00,,,0.00,100.0,WUHU216DAVISVP2,2013-08-27 19:26:00,
2013-08-27 15:31:00,81.0,69.3,29.84,NE,47,1.0,3.0,67,0.00,,,0.00,91.0,WUHU216DAVISVP2,2013-08-27 19:31:00,
2013-08-27 15:36:00,80.7,69.4,29.84,NE,47,1.0,3.0,68,0.00,,,0.00,153.0,WUHU216DAVISVP2,2013-08-27 19:36:00,
2013-08-27 15:41:00,81.4,70.5,29.84,NNE,17,1.0,3.0,69,0.00,,,0.00,146.0,WUHU216DAVISVP2,2013-08-27 19:41:00,
2013-08-27 15:46:00,82.3,68.2,29.84,NW,314,0.0,2.0,62,0.00,,,0.00,107.0,WUHU216DAVISVP2,2013-08-27 19:46:00,
2013-08-27 15:51:00,82.0,68.4,29.83,NNE,30,2.0,2.0,63,0.00,,,0.00,163.0,WUHU216DAVISVP2,2013-08-27 19:51:00,
2013-08-27 15:56:00,82.5,69.5,29.83,NNE,30,0.0,3.0,65,0.00,,,0.00,114.0,WUHU216DAVISVP2,2013-08-27 19:56:00,
2013-08-27 16:01:00,83.1,67.3,29.83,ENE,75,2.0,3.0,59,0.00,,,0.00,100.0,WUHU216DAVISVP2,2013-08-27 20:01:00,
2013-08-27 16:06:00,82.6,66.3,29.83,NE,52,1.0,3.0,58,0.00,,,0.00,113.0,WUHU216DAVISVP2,2013-08-27 20:06:00,
2013-08-27 16:11:00,82.8,67.7,29.83,NNE,25,1.0,3.0,60,0.00,,,0.00,95.0,WUHU216DAVISVP2,2013-08-27 20:11:00,
2013-08-27 16:16:00,82.8,66.2,29.83,West,259,0.0,3.0,57,0.00,,,0.00,121.0,WUHU216DAVISVP2,2013-08-27 20:16:00,
2013-08-27 16:21:00,83.2,68.6,29.83,SW,217,1.0,3.0,61,0.00,,,0.00,200.0,WUHU216DAVISVP2,2013-08-27 20:21:00,
2013-08-27 16:26:00,83.4,68.8,29.83,ENE,57,1.0,3.0,61,0.00,,,0.00,134.0,WUHU216DAVISVP2,2013-08-27 20:26:00,
2013-08-27 16:31:00,83.7,67.1,29.83,NNW,329,1.0,3.0,57,0.00,,,0.00,163.0,WUHU216DAVISVP2,2013-08-27 20:31:00,
2013-08-27 16:36:00,83.6,67.5,29.83,WNW,294,0.0,3.0,58,0.00,,,0.00,211.0,WUHU216DAVISVP2,2013-08-27 20:36:00,
2013-08-27 16:41:00,84.8,70.6,29.83,WNW,295,0.0,3.0,62,0.00,,,0.00,399.0,WUHU216DAVISVP2,2013-08-27 20:41:00,
2013-08-27 16:46:00,83.0,67.4,29.83,NW,313,0.0,2.0,59,0.00,,,0.00,70.0,WUHU216DAVISVP2,2013-08-27 20:46:00,
2013-08-27 16:51:00,81.7,69.5,29.83,NW,314,2.0,2.0,66,0.00,,,0.00,227.0,WUHU216DAVISVP2,2013-08-27 20:51:00,
2013-08-27 16:56:00,80.4,70.8,29.83,NNE,30,2.0,3.0,72,0.00,,,0.00,100.0,WUHU216DAVISVP2,2013-08-27 20:56:00,
2013-08-27 17:01:00,80.5,70.0,29.83,NE,38,1.0,3.0,70,0.00,,,0.00,81.0,WUHU216DAVISVP2,2013-08-27 21:01:00,
2013-08-27 17:06:00,79.8,70.0,29.83,NE,38,1.0,3.0,72,0.00,,,0.00,79.0,WUHU216DAVISVP2,2013-08-27 21:06:00,
2013-08-27 17:11:00,80.0,69.3,29.83,NE,38,0.0,3.0,70,0.00,,,0.00,76.0,WUHU216DAVISVP2,2013-08-27 21:11:00,
2013-08-27 17:16:00,80.3,69.2,29.83,NNE,32,1.0,2.0,69,0.00,,,0.00,72.0,WUHU216DAVISVP2,2013-08-27 21:16:00,
2013-08-27 17:21:00,80.2,68.1,29.83,NNE,26,0.0,2.0,66,0.00,,,0.00,72.0,WUHU216DAVISVP2,2013-08-27 21:21:00,
2013-08-27 17:26:00,81.0,67.5,29.83,NNE,26,1.0,2.0,63,0.00,,,0.00,90.0,WUHU216DAVISVP2,2013-08-27 21:26:00,
2013-08-27 17:31:00,81.8,66.8,29.83,NNE,26,0.0,2.0,60,0.00,,,0.00,90.0,WUHU216DAVISVP2,2013-08-27 21:31:00,
2013-08-27 17:36:00,80.5,70.0,29.83,NNE,26,2.0,2.0,70,0.00,,,0.00,90.0,WUHU216DAVISVP2,2013-08-27 21:36:00,
2013-08-27 17:41:00,79.9,69.9,29.83,NNE,26,1.0,2.0,71,0.00,,,0.00,65.0,WUHU216DAVISVP2,2013-08-27 21:41:00,
2013-08-27 17:46:00,79.4,69.0,29.84,NNE,26,1.0,2.0,70,0.00,,,0.00,67.0,WUHU216DAVISVP2,2013-08-27 21:46:00,
2013-08-27 17:51:00,80.2,67.2,29.83,WNW,285,0.0,3.0,64,0.00,,,0.00,58.0,WUHU216DAVISVP2,2013-08-27 21:51:00,
2013-08-27 17:56:00,81.4,66.4,29.83,NNW,330,0.0,3.0,60,0.00,,,0.00,105.0,WUHU216DAVISVP2,2013-08-27 21:56:00,
2013-08-27 18:01:00,81.0,67.0,29.83,NNW,330,1.0,3.0,62,0.00,,,0.00,76.0,WUHU216DAVISVP2,2013-08-27 22:01:00,
2013-08-27 18:06:00,80.1,68.4,29.83,NNW,330,1.0,3.0,67,0.00,,,0.00,60.0,WUHU216DAVISVP2,2013-08-27 22:06:00,
2013-08-27 18:11:00,79.1,68.7,29.83,NNW,330,1.0,3.0,70,0.00,,,0.00,100.0,WUHU216DAVISVP2,2013-08-27 22:11:00,
2013-08-27 18:16:00,78.5,69.3,29.83,NNW,330,0.0,2.0,73,0.00,,,0.00,56.0,WUHU216DAVISVP2,2013-08-27 22:16:00,
2013-08-27 18:21:00,78.5,68.1,29.84,NNW,330,0.0,2.0,70,0.00,,,0.00,47.0,WUHU216DAVISVP2,2013-08-27 22:21:00,
2013-08-27 18:26:00,77.6,69.6,29.83,NNW,330,0.0,2.0,76,0.00,,,0.00,40.0,WUHU216DAVISVP2,2013-08-27 22:26:00,
2013-08-27 18:31:00,76.7,69.5,29.84,NNW,330,0.0,1.0,78,0.00,,,0.00,42.0,WUHU216DAVISVP2,2013-08-27 22:31:00,
2013-08-27 18:36:00,77.8,68.6,29.84,NNW,330,0.0,0.0,73,0.00,,,0.00,42.0,WUHU216DAVISVP2,2013-08-27 22:36:00,
2013-08-27 18:41:00,77.8,69.0,29.84,NNW,330,0.0,0.0,74,0.00,,,0.00,35.0,WUHU216DAVISVP2,2013-08-27 22:41:00,
2013-08-27 18:46:00,76.8,69.2,29.84,NNW,330,0.0,0.0,77,0.00,,,0.00,26.0,WUHU216DAVISVP2,2013-08-27 22:46:00,
2013-08-27 18:51:00,76.8,69.4,29.84,NNW,330,0.0,0.0,78,0.00,,,0.00,25.0,WUHU216DAVISVP2,2013-08-27 22:51:00,
2013-08-27 18:56:00,76.5,69.5,29.84,NNW,330,0.0,0.0,79,0.00,,,0.00,19.0,WUHU216DAVISVP2,2013-08-27 22:56:00,
2013-08-27 19:01:00,76.2,68.5,29.84,NNW,330,0.0,0.0,77,0.00,,,0.00,16.0,WUHU216DAVISVP2,2013-08-27 23:01:00,
2013-08-27 19:06:00,76.0,68.6,29.84,NNW,330,0.0,0.0,78,0.00,,,0.00,12.0,WUHU216DAVISVP2,2013-08-27 23:06:00,
2013-08-27 19:11:00,75.2,69.3,29.84,NNW,330,0.0,1.0,82,0.00,,,0.00,9.0,WUHU216DAVISVP2,2013-08-27 23:11:00,
2013-08-27 19:16:00,74.7,69.5,29.84,NNW,330,1.0,1.0,84,0.00,,,0.00,7.0,WUHU216DAVISVP2,2013-08-27 23:16:00,
2013-08-27 19:21:00,74.3,68.8,29.84,NNW,330,0.0,1.0,83,0.00,,,0.00,7.0,WUHU216DAVISVP2,2013-08-27 23:21:00,
2013-08-27 19:26:00,74.2,68.0,29.84,NNW,330,0.0,1.0,81,0.00,,,0.00,0.0,WUHU216DAVISVP2,2013-08-27 23:26:00,
2013-08-27 19:31:00,73.8,68.7,29.84,NNW,330,0.0,1.0,84,0.00,,,0.00,0.0,WUHU216DAVISVP2,2013-08-27 23:31:00,
2013-08-27 19:36:00,73.1,68.3,29.85,NNW,330,0.0,1.0,85,0.00,,,0.00,0.0,WUHU216DAVISVP2,2013-08-27 23:36:00,
2013-08-27 19:41:00,72.8,68.0,29.85,NNW,330,0.0,1.0,85,0.00,,,0.00,0.0,WUHU216DAVISVP2,2013-08-27 23:41:00,
2013-08-27 19:46:00,72.8,68.0,29.85,NNW,330,0.0,1.0,85,0.00,,,0.00,0.0,WUHU216DAVISVP2,2013-08-27 23:46:00,
2013-08-27 19:51:00,72.2,68.1,29.85,NNW,330,1.0,1.0,87,0.00,,,0.00,0.0,WUHU216DAVISVP2,2013-08-27 23:51:00,
2013-08-27 19:56:00,72.1,67.7,29.86,NNW,330,0.0,1.0,86,0.00,,,0.00,0.0,WUHU216DAVISVP2,2013-08-27 23:56:00,
2013-08-27 20:01:00,71.8,68.1,29.86,NNW,330,0.0,2.0,88,0.00,,,0.00,0.0,WUHU216DAVISVP2,2013-08-28 00:01:00,
2013-08-27 20:06:00,71.6,67.5,29.86,NNW,330,0.0,2.0,87,0.00,,,0.00,0.0,WUHU216DAVISVP2,2013-08-28 00:06:00,
2013-08-27 20:11:00,71.2,67.5,29.86,NNW,330,0.0,2.0,88,0.00,,,0.00,0.0,WUHU216DAVISVP2,2013-08-28 00:11:00,
2013-08-27 20:16:00,70.9,67.5,29.86,NNW,330,0.0,2.0,89,0.00,,,0.00,0.0,WUHU216DAVISVP2,2013-08-28 00:16:00,
2013-08-27 20:21:00,70.9,67.5,29.86,NNW,330,0.0,1.0,89,0.00,,,0.00,0.0,WUHU216DAVISVP2,2013-08-28 00:21:00,
2013-08-27 20:26:00,70.7,67.3,29.87,NNW,330,0.0,2.0,89,0.00,,,0.00,0.0,WUHU216DAVISVP2,2013-08-28 00:26:00,
2013-08-27 20:31:00,70.7,67.3,29.87,NNW,330,0.0,2.0,89,0.00,,,0.00,0.0,WUHU216DAVISVP2,2013-08-28 00:31:00,
2013-08-27 20:36:00,70.4,67.3,29.87,NNW,330,0.0,2.0,90,0.00,,,0.00,0.0,WUHU216DAVISVP2,2013-08-28 00:36:00,
2013-08-27 20:41:00,70.2,67.1,29.88,NNW,330,0.0,2.0,90,0.00,,,0.00,0.0,WUHU216DAVISVP2,2013-08-28 00:41:00,
2013-08-27 20:46:00,70.2,67.1,29.88,NNW,330,0.0,1.0,90,0.00,,,0.00,0.0,WUHU216DAVISVP2,2013-08-28 00:46:00,
2013-08-27 20:51:00,69.7,66.6,29.88,NNW,330,0.0,2.0,90,0.00,,,0.00,0.0,WUHU216DAVISVP2,2013-08-28 00:51:00,
2013-08-27 20:56:00,69.5,66.4,29.88,NNW,330,0.0,2.0,90,0.00,,,0.00,0.0,WUHU216DAVISVP2,2013-08-28 00:56:00,
2013-08-27 21:01:00,69.5,66.4,29.88,NNW,330,0.0,2.0,90,0.00,,,0.00,0.0,WUHU216DAVISVP2,2013-08-28 01:01:00,
2013-08-27 21:06:00,69.4,66.3,29.88,NNW,330,0.0,2.0,90,0.00,,,0.00,0.0,WUHU216DAVISVP2,2013-08-28 01:06:00,
2013-08-27 21:11:00,69.4,66.3,29.88,NNW,330,0.0,1.0,90,0.00,,,0.00,0.0,WUHU216DAVISVP2,2013-08-28 01:11:00,
2013-08-27 21:16:00,69.1,66.0,29.88,NNW,330,0.0,1.0,90,0.00,,,0.00,0.0,WUHU216DAVISVP2,2013-08-28 01:16:00,
2013-08-27 21:21:00,68.9,66.1,29.88,NNW,330,0.0,1.0,91,0.00,,,0.00,0.0,WUHU216DAVISVP2,2013-08-28 01:21:00,
2013-08-27 21:26:00,68.8,66.0,29.88,NNW,330,0.0,1.0,91,0.00,,,0.00,0.0,WUHU216DAVISVP2,2013-08-28 01:26:00,
2013-08-27 21:31:00,68.7,65.9,29.88,NNW,330,0.0,1.0,91,0.00,,,0.00,0.0,WUHU216DAVISVP2,2013-08-28 01:31:00,
2013-08-27 21:36:00,68.5,65.7,29.88,NNW,330,0.0,0.0,91,0.00,,,0.00,0.0,WUHU216DAVISVP2,2013-08-28 01:36:00,
2013-08-27 21:41:00,68.2,65.4,29.88,NNW,330,1.0,2.0,91,0.00,,,0.00,0.0,WUHU216DAVISVP2,2013-08-28 01:41:00,
2013-08-27 21:46:00,67.9,65.2,29.88,NNW,330,0.0,2.0,91,0.00,,,0.00,0.0,WUHU216DAVISVP2,2013-08-28 01:46:00,
2013-08-27 21:51:00,67.9,65.2,29.88,NNW,330,0.0,2.0,91,0.00,,,0.00,0.0,WUHU216DAVISVP2,2013-08-28 01:51:00,
2013-08-27 21:56:00,68.1,65.3,29.88,NNW,330,0.0,2.0,91,0.00,,,0.00,0.0,WUHU216DAVISVP2,2013-08-28 01:56:00,
2013-08-27 22:01:00,68.1,65.3,29.89,NNW,330,0.0,1.0,91,0.00,,,0.00,0.0,WUHU216DAVISVP2,2013-08-28 02:01:00,
2013-08-27 22:06:00,68.2,65.4,29.89,NNW,330,0.0,1.0,91,0.00,,,0.00,0.0,WUHU216DAVISVP2,2013-08-28 02:06:00,
2013-08-27 22:11:00,68.3,65.5,29.89,NNW,330,0.0,1.0,91,0.00,,,0.00,0.0,WUHU216DAVISVP2,2013-08-28 02:11:00,
2013-08-27 22:16:00,68.2,65.4,29.88,NNW,330,0.0,1.0,91,0.00,,,0.00,0.0,WUHU216DAVISVP2,2013-08-28 02:16:00,
2013-08-27 22:21:00,67.7,65.0,29.89,NNW,330,1.0,1.0,91,0.00,,,0.00,0.0,WUHU216DAVISVP2,2013-08-28 02:21:00,
2013-08-27 22:26:00,67.6,65.2,29.89,NNW,330,1.0,1.0,92,0.00,,,0.00,0.0,WUHU216DAVISVP2,2013-08-28 02:26:00,
2013-08-27 22:31:00,67.5,65.1,29.89,NNW,330,0.0,1.0,92,0.00,,,0.00,0.0,WUHU216DAVISVP2,2013-08-28 02:31:00,
2013-08-27 22:36:00,67.3,64.9,29.89,NNW,330,0.0,1.0,92,0.00,,,0.00,0.0,WUHU216DAVISVP2,2013-08-28 02:36:00,
2013-08-27 22:41:00,67.4,65.0,29.89,NNW,330,0.0,1.0,92,0.00,,,0.00,0.0,WUHU216DAVISVP2,2013-08-28 02:41:00,
2013-08-27 22:46:00,67.3,64.9,29.89,NNW,330,0.0,1.0,92,0.00,,,0.00,0.0,WUHU216DAVISVP2,2013-08-28 02:46:00,
2013-08-27 22:51:00,67.2,64.8,29.90,NNW,330,0.0,1.0,92,0.00,,,0.00,0.0,WUHU216DAVISVP2,2013-08-28 02:51:00,
2013-08-27 22:56:00,67.3,64.9,29.89,NNW,330,0.0,1.0,92,0.00,,,0.00,0.0,WUHU216DAVISVP2,2013-08-28 02:56:00,
2013-08-27 23:01:00,67.2,64.8,29.89,NNW,330,0.0,1.0,92,0.00,,,0.00,0.0,WUHU216DAVISVP2,2013-08-28 03:01:00,
2013-08-27 23:06:00,67.2,64.8,29.90,NNW,330,0.0,1.0,92,0.00,,,0.00,0.0,WUHU216DAVISVP2,2013-08-28 03:06:00,
2013-08-27 23:11:00,67.0,64.6,29.90,NNW,330,0.0,1.0,92,0.00,,,0.00,0.0,WUHU216DAVISVP2,2013-08-28 03:11:00,
2013-08-27 23:16:00,67.0,64.6,29.90,NNW,330,0.0,1.0,92,0.00,,,0.00,0.0,WUHU216DAVISVP2,2013-08-28 03:16:00,
2013-08-27 23:21:00,66.9,64.5,29.90,NNW,330,0.0,1.0,92,0.00,,,0.00,0.0,WUHU216DAVISVP2,2013-08-28 03:21:00,
2013-08-27 23:26:00,66.9,64.5,29.90,NNW,330,0.0,1.0,92,0.00,,,0.00,0.0,WUHU216DAVISVP2,2013-08-28 03:26:00,
2013-08-27 23:31:00,66.8,64.4,29.90,NNW,330,0.0,1.0,92,0.00,,,0.00,0.0,WUHU216DAVISVP2,2013-08-28 03:31:00,
2013-08-27 23:36:00,66.7,64.3,29.90,NNW,330,0.0,1.0,92,0.00,,,0.00,0.0,WUHU216DAVISVP2,2013-08-28 03:36:00,
2013-08-27 23:41:00,66.6,64.2,29.90,NNW,330,0.0,1.0,92,0.00,,,0.00,0.0,WUHU216DAVISVP2,2013-08-28 03:41:00,
2013-08-27 23:46:00,66.6,64.2,29.90,NNW,330,0.0,1.0,92,0.00,,,0.00,0.0,WUHU216DAVISVP2,2013-08-28 03:46:00,
2013-08-27 23:51:00,66.5,64.1,29.90,NNW,330,0.0,0.0,92,0.00,,,0.00,0.0,WUHU216DAVISVP2,2013-08-28 03:51:00,
2013-08-27 23:56:00,66.5,64.1,29.90,NNW,330,0.0,1.0,92,0.00,,,0.00,0.0,WUHU216DAVISVP2,2013-08-28 03:56:00,